Wind_Speed
5 4 2 5 4 3 9 7 13 14 14 9 9 5 10 11 8 10 21 13 15 14 11 10 10 8 10 9 10 11 11 11 13 13 13 13 14 15 15 17 18 17 17 18 17 17 17 17 16
6 2 3 3 4 10 9 9 16 12 14 17 9 8 4 13 10 17 16 17 17 16 14 12 10 9 8 9 10 9 10 10 10 10 12 12 13 14 15 16 17 16 16 17 16 16 16 16 16
5 2 4 2 2 9 10 11 13 14 16 11 6 6 5 8 17 14 21 19 16 14 13 11 9 9 8 9 10 10 9 9 10 9 11 12 14 14 15 16 15 15 15 14 14 14 13 14 16
3 3 2 1 9 8 14 15 16 16 15 6 11 10 8 18 9 17 21 19 16 14 13 10 10 10 9 9 9 10 9 9 10 10 12 13 14 14 15 15 15 15 15 15 14 11 10 10 10
1 2 2 2 7 8 11 12 18 19 11 9 3 10 14 9 17 22 20 17 16 15 13 12 11 10 10 10 9 9 10 9 10 11 12 13 13 14 14 15 14 14 14 15 15 15 13 13 11
1 1 2 5 9 8 9 12 17 15 12 10 14 20 12 12 21 20 18 16 14 15 15 12 12 11 11 11 11 9 10 10 10 12 14 14 15 15 14 14 13 14 13 14 14 13 11 11 11
1 2 3 5 12 11 11 14 14 12 13 9 15 16 10 19 19 19 16 15 14 14 14 13 12 11 13 13 11 11 11 10 12 13 14 15 15 15 15 14 13 12 13 12 12 13 11 12 12
2 1 5 9 13 12 11 10 9 12 9 11 12 8 14 19 19 18 16 15 14 13 13 12 13 12 12 12 13 13 12 12 13 13 14 16 16 16 14 13 12 11 10 11 11 11 11 9 10
4 3 7 10 16 12 13 14 6 5 13 7 4 14 25 24 21 19 17 16 14 12 11 12 12 11 12 12 11 12 13 13 13 14 15 14 13 13 12 13 11 10 9 9 9 9 11 8 10
5 3 4 6 5 15 15 12 12 12 12 13 17 24 27 25 22 20 17 17 15 13 11 11 12 12 11 11 11 11 10 11 11 12 12 13 12 13 14 12 11 9 7 6 6 6 8 8 6
2 2 7 6 2 10 13 11 8 12 12 16 22 24 24 24 21 18 16 15 14 13 12 11 11 10 10 10 11 11 11 11 11 12 12 13 13 12 11 10 9 7 7 5 6 6 5 5 4
4 6 2 9 3 10 12 11 10 3 9 14 22 25 24 20 19 18 17 13 14 12 12 12 12 10 11 10 10 11 12 12 12 12 12 12 12 11 9 8 7 5 6 5 6 7 7 5 4
6 7 10 8 5 10 10 12 9 9 11 19 23 23 20 18 18 16 15 14 14 13 13 13 12 11 11 10 12 12 12 12 12 12 10 10 10 9 7 6 5 5 6 6 6 7 8 7 7
2 9 16 7 4 4 10 13 8 11 17 22 20 20 18 17 18 16 15 15 14 13 13 14 13 11 11 11 11 12 11 11 11 11 9 8 7 6 6 5 5 5 5 5 5 6 7 8 9
7 10 10 9 11 2 5 10 9 17 19 20 19 17 16 17 17 15 15 15 15 15 15 15 14 13 12 12 11 11 11 11 11 10 9 7 5 4 5 5 5 5 4 4 4 5 6 8 8
5 10 10 9 10 4 6 15 8 16 19 19 18 16 15 15 17 15 14 14 15 16 17 16 14 14 13 11 10 10 10 11 10 8 7 5 5 5 5 5 5 4 4 4 5 5 6 5 5
9 7 8 8 10 5 3 5 3 10 17 18 17 16 15 14 15 14 15 14 16 16 17 16 15 15 13 11 10 10 9 8 8 8 6 5 5 4 3 4 3 4 4 4 4 5 3 3 3
8 7 12 12 7 11 6 6 6 9 16 18 17 17 16 16 15 16 15 15 16 16 16 15 15 14 13 10 9 9 9 9 9 8 7 6 6 5 5 4 3 5 5 5 4 3 3 3 3
2 7 12 9 13 6 8 8 13 12 13 13 18 17 16 16 17 18 16 16 17 17 17 16 15 14 13 11 11 10 10 8 8 8 6 5 6 5 3 4 3 5 4 3 2 2 2 4 3
6 13 15 14 11 5 6 10 15 18 12 16 17 17 18 17 16 18 18 18 18 19 18 17 15 14 14 11 9 8 8 8 8 7 6 5 5 4 4 4 3 3 5 4 4 3 1 4 5
5 2 14 15 10 10 11 2 10 19 11 9 11 15 18 17 17 16 19 20 19 20 21 19 17 14 13 11 10 8 8 8 9 8 7 6 6 5 4 4 3 3 2 4 2 3 4 5 5
4 2 8 19 12 6 14 4 7 17 20 18 16 18 19 18 16 19 21 20 21 20 20 19 18 14 12 13 12 10 11 11 9 9 7 6 6 6 6 5 5 4 3 2 2 2 3 3 5
2 6 7 9 2 8 15 6 8 16 18 23 25 23 19 18 20 18 22 24 22 20 20 19 18 16 13 13 11 11 11 10 8 7 7 6 6 7 7 7 6 6 4 3 2 1 2 3 4
8 10 4 3 2 7 8 11 10 18 25 24 22 19 23 18 20 22 23 22 21 20 19 19 18 17 16 13 12 11 9 7 8 7 7 8 8 7 6 6 5 5 4 4 4 3 2 1 3
11 8 3 3 7 7 4 7 2 18 15 23 28 25 26 22 19 18 18 20 19 21 21 20 19 18 17 14 12 12 11 7 7 8 9 4 7 8 10 9 8 6 7 5 5 5 4 3 1
14 14 6 7 4 6 4 6 4 10 10 16 21 24 23 22 20 17 21 22 23 22 22 20 20 19 18 17 14 11 9 9 9 8 5 8 6 6 7 8 7 6 6 6 5 6 7 5 3
14 15 14 9 7 6 7 6 9 9 9 13 16 22 23 22 18 18 20 21 22 23 23 22 19 18 17 17 14 13 12 12 8 3 6 7 6 7 7 7 8 7 8 6 6 6 7 6 5
13 12 16 12 13 12 7 8 2 10 10 13 18 23 21 16 18 15 20 22 21 23 20 18 18 16 15 15 15 15 13 13 12 8 8 6 4 8 9 8 7 8 8 8 8 6 7 6 7
12 12 10 13 14 12 12 7 6 5 7 11 15 19 19 21 21 15 15 20 20 21 17 15 14 13 13 14 15 15 13 11 10 10 10 6 6 6 6 8 8 6 8 10 9 7 6 8 7
8 17 16 10 15 10 13 0 4 5 4 5 11 14 16 16 17 15 18 16 17 21 18 14 12 8 9 13 14 14 16 12 12 11 12 9 8 7 5 6 7 4 5 6 9 7 7 8 7
Wind_Direction
159 179 240 251 218 208 105 91 119 125 133 131 118 128 71 22 6 90 134 139 138 136 136 136 136 131 118 117 111 103 95 88 81 85 90 89 91 93 98 99 96 95 95 93 94 91 90 88 83
175 195 238 282 206 135 104 121 132 141 127 135 129 135 92 71 92 120 130 141 140 137 139 138 141 130 126 107 108 99 94 92 90 91 92 98 105 102 102 100 101 101 98 96 96 90 92 90 85
182 272 281 333 317 104 118 127 134 125 136 146 102 60 34 95 122 129 133 140 140 136 124 134 136 126 124 120 101 103 95 98 97 104 103 102 105 100 103 102 99 92 87 85 86 90 89 88 81
226 258 151 28 118 89 120 135 135 136 148 125 126 88 86 121 112 131 138 140 136 136 121 129 122 112 110 107 107 103 103 100 107 107 104 103 104 104 108 104 101 90 84 81 78 85 83 78 82
234 316 73 158 116 118 111 139 145 144 147 145 169 113 115 90 126 134 139 139 135 128 124 119 117 108 114 119 116 109 116 106 107 110 106 103 102 106 109 108 100 91 83 82 79 78 81 80 85
57 160 112 177 129 128 116 152 151 152 114 112 117 124 99 136 139 140 140 135 134 131 123 118 114 111 109 116 116 111 111 110 109 108 115 110 100 104 108 107 103 93 85 91 80 75 78 79 77
125 136 203 208 142 145 132 144 159 146 152 140 138 124 117 152 140 142 141 134 136 134 123 125 121 111 110 108 115 115 111 105 102 105 108 110 101 101 106 108 106 97 93 90 78 72 77 78 72
342 252 182 199 160 141 144 151 128 159 111 120 141 153 152 139 151 144 141 140 135 132 131 126 124 121 121 110 107 109 107 104 100 103 107 108 104 100 108 110 108 103 96 87 79 69 72 78 68
136 256 176 170 164 141 146 135 118 97 146 145 143 141 140 153 148 151 149 142 143 134 137 134 127 128 125 122 115 109 112 112 104 104 108 109 109 104 103 115 106 104 99 92 81 73 70 71 56
219 247 167 78 142 148 155 149 144 145 134 123 114 115 141 148 158 155 157 152 149 144 143 128 133 137 133 128 123 121 125 115 117 111 110 110 107 101 109 107 108 109 98 75 69 55 53 56 65
232 286 140 106 145 153 144 141 154 153 158 152 142 143 150 157 160 158 157 159 147 144 139 139 137 142 144 135 138 135 130 125 119 114 114 111 111 108 109 105 103 99 85 85 58 39 53 46 56
275 110 148 147 150 154 150 129 136 174 132 153 149 148 153 162 162 162 159 159 146 146 142 138 143 139 133 132 134 136 135 135 129 126 121 118 116 113 110 105 103 97 84 71 60 55 39 45 68
244 116 133 112 102 143 144 135 122 105 136 138 144 151 156 164 162 162 157 153 151 155 146 143 145 141 138 128 127 130 135 137 131 131 124 118 117 111 115 110 101 91 89 78 61 58 61 68 79
357 138 139 125 144 70 164 138 135 118 140 141 153 156 160 164 162 158 161 160 159 152 150 147 148 144 137 131 129 132 133 133 135 131 126 117 114 107 113 109 106 97 85 80 64 60 72 78 88
246 149 142 168 144 85 95 141 126 141 148 148 160 160 161 162 155 161 160 162 161 158 152 151 150 145 140 136 135 131 139 135 136 133 128 125 116 113 119 109 120 109 102 78 75 90 93 89 95
196 151 155 167 155 107 14 146 135 158 159 159 160 158 161 160 159 158 154 157 156 154 156 156 154 148 146 142 138 132 130 134 134 138 141 135 128 118 117 115 116 123 116 98 91 89 102 77 69
189 181 180 143 84 86 126 157 164 176 176 170 169 166 166 162 165 160 155 156 156 155 158 159 157 154 151 148 140 137 138 142 142 143 143 141 140 131 120 115 104 130 119 97 96 89 46 96 59
182 168 166 145 120 109 142 133 193 206 194 180 177 173 176 174 176 170 165 160 158 157 161 162 162 157 159 156 152 146 141 140 149 148 140 130 143 132 133 113 103 137 124 102 87 36 50 36 22
313 123 116 113 133 109 130 159 207 206 215 211 183 178 181 184 176 171 178 171 166 167 166 169 167 168 168 166 165 154 153 150 153 151 152 146 137 136 144 135 118 132 130 84 62 56 65 62 31
202 137 124 140 160 133 154 210 202 203 207 214 196 186 183 183 175 180 185 182 179 177 179 178 178 179 175 178 179 170 163 166 161 162 167 179 162 157 152 156 141 139 135 119 66 28 47 69 39
213 312 163 135 132 100 132 8 185 212 190 210 242 214 185 187 177 194 191 192 188 183 186 187 190 188 192 196 192 185 182 168 173 172 180 183 182 180 180 171 163 153 158 133 78 61 2 82 62
158 21 85 138 153 177 202 147 221 205 189 196 214 221 213 197 216 187 193 196 197 189 190 190 193 198 202 200 202 194 192 181 184 187 182 182 184 202 188 191 184 174 174 150 135 74 46 346 83
138 249 141 156 152 162 197 239 164 195 198 193 209 208 221 188 206 204 194 196 199 190 189 190 189 191 198 197 200 199 202 182 190 186 175 180 188 201 207 196 202 200 181 191 168 144 59 68 58
112 113 102 111 320 223 173 234 160 187 208 197 195 218 209 220 197 206 203 198 199 193 190 188 187 186 194 199 201 202 199 200 179 184 190 199 187 189 192 192 200 212 214 214 201 183 185 34 71
181 127 155 283 194 236 115 225 75 185 187 196 197 203 204 207 210 203 207 196 201 195 191 188 186 188 193 199 209 205 207 223 227 209 220 195 173 188 192 201 207 218 202 198 201 201 205 215 244
205 170 228 247 197 196 159 232 125 175 186 198 197 197 201 202 212 204 196 196 197 198 193 191 189 192 197 202 211 209 218 219 229 231 224 207 221 206 169 191 197 194 191 204 203 215 217 215 248
184 220 205 272 267 278 177 195 174 175 193 200 207 194 190 192 212 208 194 190 197 197 198 195 191 194 198 205 209 213 218 225 249 266 217 209 227 212 186 193 192 195 195 206 214 216 218 227 236
277 224 209 228 250 229 191 240 276 170 178 182 178 178 183 185 204 202 205 188 192 200 194 204 194 194 198 205 209 214 221 225 231 247 250 254 243 201 189 199 205 206 206 209 219 224 222 229 240
199 236 225 245 226 251 242 203 51 136 168 177 179 177 179 178 188 181 205 194 189 187 182 178 189 192 203 208 215 218 219 225 233 231 234 239 254 216 203 216 210 205 209 221 216 233 227 227 238
287 219 210 225 218 251 283 148 117 116 151 189 180 182 175 182 189 169 167 155 164 168 148 152 167 180 212 221 219 215 226 230 231 232 237 235 238 240 227 218 219 234 221 223 216 220 222 229 238
Height
792 792 792 788 791 772 792 801 790 799 799 790 793 796 802 805 806 825 825 829 832 835 839 842 844 845 845 847 847 847 847 846 846 848 849 849 849 851 852 852 852 853 854 854 854 854 854 856 855
792 793 791 785 784 789 800 788 797 792 789 791 795 799 800 817 812 819 827 832 834 835 839 843 845 845 847 847 847 847 847 848 850 850 851 851 853 853 854 855 856 856 857 857 857 858 858 858 858
793 792 785 795 785 790 801 788 792 789 790 794 799 794 803 820 820 820 828 833 835 837 841 845 846 847 848 849 848 849 849 851 853 854 854 854 854 855 856 857 858 859 860 859 860 860 860 860 860
792 790 787 807 796 792 787 786 785 793 794 793 797 811 816 819 822 825 831 833 835 840 842 845 847 848 849 849 850 851 853 853 854 855 855 856 857 858 859 861 862 861 861 862 862 863 862 863 863
790 790 803 806 797 789 781 780 784 795 795 798 795 813 820 825 827 830 833 835 837 840 845 848 849 850 851 852 853 854 855 856 857 858 858 859 859 861 862 863 864 864 865 864 865 865 866 866 866
799 794 817 803 798 790 785 782 785 791 796 803 806 811 822 829 830 832 835 837 840 842 845 850 852 853 853 854 855 857 858 858 860 861 861 862 863 863 864 866 866 867 867 868 867 867 868 868 867
801 808 812 799 796 798 793 782 789 793 801 802 800 813 825 827 831 834 836 840 842 844 847 850 853 855 856 857 858 859 861 861 862 862 863 865 865 865 866 867 868 869 870 870 870 870 869 869 869
796 800 808 790 794 803 789 787 787 791 798 798 798 817 829 829 832 836 839 841 842 845 848 851 853 856 858 860 860 862 862 863 864 864 866 866 868 868 869 870 871 871 871 871 871 871 871 871 871
797 805 799 786 791 794 785 794 792 792 801 799 802 804 820 831 833 836 840 842 845 847 849 851 854 858 859 861 863 863 864 865 865 867 869 869 869 870 872 871 872 873 873 873 873 873 873 872 872
793 800 791 781 787 785 785 790 794 797 804 806 807 815 826 830 834 835 838 841 843 848 850 852 855 858 860 861 863 865 866 866 868 869 871 871 871 872 873 874 874 874 875 874 874 874 874 873 873
786 794 781 796 787 776 785 793 790 796 807 807 813 818 825 829 832 835 840 840 842 848 852 854 858 859 860 863 864 866 867 869 871 872 872 873 874 875 875 876 877 877 877 876 876 875 874 875 874
792 782 782 791 787 780 791 790 795 796 796 801 808 816 823 828 831 834 838 841 845 849 853 855 859 860 862 863 864 866 868 869 871 874 875 875 875 877 877 877 878 878 878 877 876 875 875 875 875
784 784 791 793 791 783 786 794 799 803 800 805 813 819 823 827 831 834 838 843 846 849 853 857 860 862 864 864 866 867 870 870 872 874 876 876 877 878 879 879 879 879 878 878 877 877 876 875 875
777 783 790 800 798 797 791 794 793 806 804 809 815 818 822 826 830 835 839 843 847 850 853 857 860 863 864 866 868 869 870 872 873 875 877 878 879 880 880 880 879 879 879 879 879 878 876 875 875
776 795 797 798 797 813 797 807 802 804 807 813 815 818 822 825 830 836 839 843 847 850 854 858 861 863 865 867 869 870 871 873 874 876 878 880 881 881 881 881 880 880 880 880 880 878 877 875 875
786 787 805 801 801 814 814 820 815 805 808 814 814 818 822 826 831 835 839 843 847 850 855 858 860 863 866 868 869 870 872 873 876 877 879 880 881 882 882 881 881 881 881 880 879 878 877 876 875
786 796 801 811 811 819 825 828 825 810 807 811 814 818 822 826 830 835 839 843 847 851 856 859 861 863 866 869 870 871 873 874 876 878 879 880 881 882 882 881 882 881 881 880 879 879 878 876 875
774 793 796 800 816 822 832 829 827 820 810 809 812 815 820 824 829 835 839 843 847 852 856 859 862 865 867 870 871 872 873 875 876 878 878 880 882 882 882 882 882 881 881 880 880 880 879 878 878
765 786 805 813 818 822 826 828 825 824 823 813 811 813 817 821 826 833 838 842 846 851 856 859 862 865 868 870 870 872 872 874 876 877 879 881 882 883 883 882 883 882 882 882 881 880 879 877 877
765 779 810 814 815 814 825 827 825 821 826 822 813 811 814 818 822 829 835 839 843 849 854 858 862 865 867 869 869 870 872 873 875 878 879 880 882 882 883 883 883 883 883 883 882 881 878 878 878
770 771 786 803 810 812 823 836 831 822 825 825 823 810 809 813 821 828 832 836 841 846 851 856 860 864 866 868 870 872 873 875 876 877 878 879 881 882 883 883 883 883 883 882 883 882 880 877 879
783 770 774 795 805 814 801 839 831 820 821 824 824 822 808 814 817 821 828 833 837 842 849 854 858 862 865 867 868 870 871 871 871 875 876 878 880 881 882 883 883 883 883 884 883 883 882 879 878
791 774 782 782 790 793 804 808 794 810 814 814 812 811 812 807 815 813 821 828 833 839 845 851 856 860 863 866 868 870 869 870 872 873 876 877 879 880 881 882 883 883 882 884 884 884 884 883 881
780 788 787 789 791 803 781 789 803 804 793 797 808 808 811 808 805 812 816 823 830 836 842 847 853 857 861 864 867 869 870 870 870 872 875 876 877 879 880 881 882 882 882 883 883 884 885 885 883
783 801 821 832 809 805 780 788 771 773 772 775 786 798 800 806 802 806 812 818 826 832 838 843 849 854 859 862 866 869 871 873 873 873 873 872 875 876 878 880 881 881 881 882 883 885 886 885 884
781 797 817 815 822 787 782 789 768 757 760 761 768 781 793 802 801 804 810 817 824 830 835 840 845 851 856 860 864 868 871 872 872 872 869 873 874 875 876 878 878 879 881 881 882 883 884 884 884
776 788 774 799 771 783 769 766 763 764 767 766 766 771 786 795 799 805 807 815 821 827 832 837 843 849 853 857 862 866 869 871 870 872 874 874 874 874 877 877 877 878 879 880 881 881 883 883 884
768 762 786 783 802 805 775 777 765 771 769 765 766 769 781 791 798 801 805 811 821 824 830 836 840 846 851 855 859 863 867 869 870 872 873 874 875 873 874 875 875 877 878 879 880 880 881 882 882
778 777 770 765 773 788 791 774 755 761 762 764 763 766 773 785 791 800 807 809 815 822 830 834 838 844 848 852 856 860 864 867 869 870 871 873 873 873 873 873 872 874 876 878 878 879 879 881 881
757 764 765 782 791 772 769 767 759 763 767 765 763 766 774 783 790 798 805 810 818 825 830 834 838 842 847 849 853 858 861 864 865 868 869 871 871 871 871 872 872 873 874 876 877 877 877 879 880